#timestamp,LO_Frequency,Hit 
1500091215.2,286047001.2,N
1500091235.0,286047001.8,N
1500091235.9,286047001.8,N
1500091255.8,286047005.4,N
1500091275.6,286047005.2,N
1500091295.4,286047006.0,N
1500091315.3,286047005.5,N
1500091335.1,286047003.3,N
1500091336.0,286047003.3,N
1500091355.8,286047002.9,N
1500091375.7,286047005.9,N
1500091395.5,286047004.9,N
1500091415.3,286047003.4,N
1500091435.2,286047004.1,N
1500091455.9,286047003.6,N
1500091475.7,286047003.5,N
1500091495.6,286047005.4,N
1500091515.4,286047003.4,N
1500091535.2,286047003.7,N
1500091555.0,286047003.7,N
1500091556.0,286047003.7,N
1500091575.8,286047005.3,N
1500091595.6,286047007.1,N
1500091615.4,286047004.8,N
1500091635.3,286047003.8,N
1500091655.1,286047002.1,N
1500091675.8,286047002.7,N
1500091695.7,286047004.4,N
1500091715.5,286047001.6,N
1500091735.3,286047001.4,N
1500091755.2,286047001.4,N
1500091775.9,286047003.0,N
1500091795.7,286047005.5,N
1500091815.6,286047009.2,N
1500091835.4,286047006.9,N
1500091855.2,286047005.2,N
1500091875.1,286047005.7,N
1500091876.0,286047005.7,N
1500091895.8,286047005.8,N
1500091915.6,286047003.2,N
1500091935.5,286047002.1,N
1500091955.3,286047002.6,N
1500091975.1,286047000.1,N
1500091995.8,286047002.0,N
1500092015.7,286046999.8,N
1500092035.5,286047002.5,N
1500092055.3,286047003.9,N
1500092075.2,286047001.9,N
1500092095.0,286047003.7,N
1500092095.9,286047003.7,N
1500092115.7,286047001.8,N
1500092135.6,286047002.4,N
1500092155.4,286047002.7,N
1500092175.2,286047001.9,N
1500092195.1,286047002.4,N
1500092196.0,286047002.4,N
1500092215.8,286047003.1,N
1500092235.6,286047003.4,N
1500092255.5,286047005.5,N
1500092275.3,286047003.4,N
1500092295.1,286047003.2,N
1500092315.9,286047004.0,N
1500092335.7,286047003.7,N
1500092355.5,286047006.0,N
1500092375.4,286047005.6,N
1500092395.2,286047004.6,N
1500092415.0,286047005.5,N
1500092415.9,286047005.5,N
1500092435.8,286047003.1,N
1500092455.6,286047006.9,N
1500092475.4,286047006.5,N
1500092495.2,286047007.3,N
1500092515.1,286047007.0,N
1500092516.0,286047007.0,N
1500092535.8,286047003.5,N
1500092555.6,286047005.6,N
1500092575.5,286047007.4,N
1500092595.3,286047008.8,N
1500092615.1,286047008.6,N
1500092635.9,286047010.8,N
1500092655.7,286047008.5,N
1500092675.5,286047008.3,N
1500092695.4,286047006.4,N
1500092715.2,286047005.3,N
1500092735.0,286047006.7,N
1500092735.9,286047006.7,N
1500092755.8,286047006.3,N
1500092775.6,286047006.1,N
1500092795.4,286047008.6,N
1500092815.2,286047009.4,N
1500092835.1,286047007.7,N
1500092836.0,286047007.7,N
1500092855.8,286047009.3,N
1500092875.6,286047009.1,N
1500092895.5,286047010.8,N
1500092915.3,286047009.0,N
1500092935.1,286047007.4,N
1500092955.9,286047009.2,N
1500092975.7,286047011.0,N
1500092995.5,286047011.7,N
1500093015.4,286047007.8,N
1500093035.2,286047008.5,N
1500093055.0,286047012.3,N
1500093055.9,286047012.3,N
1500093075.8,286047008.0,N
1500093095.6,286047009.4,N
1500093115.4,286047006.8,N
1500093135.2,286047006.5,N
1500093155.1,286047007.2,N
1500093156.0,286047007.2,N
1500093175.8,286047006.5,N
1500093195.6,286047008.1,N
1500093215.5,286047008.8,N
1500093235.3,286047007.2,N
1500093255.1,286047005.4,N
1500093275.9,286047004.2,N
1500093295.7,286047002.0,N
1500093315.5,286047005.8,N
1500093335.4,286047004.9,N
1500093355.2,286047007.4,N
1500093375.0,286047006.9,N
1500093375.9,286047006.9,N
1500093395.8,286047005.0,N
1500093415.6,286047004.6,N
1500093435.4,286047008.8,N
1500093455.3,286047007.7,N
1500093475.1,286047009.8,N
1500093476.0,286047009.8,N
1500093495.8,286047012.9,N
1500093515.7,286047013.4,N
1500093535.5,286047011.0,N
1500093555.3,286047010.1,N
1500093575.2,286047009.2,N
1500093595.9,286047009.0,N
1500093615.7,286047010.6,N
1500093635.5,286047010.4,N
1500093655.4,286047010.4,N
1500093675.2,286047009.9,N
1500093695.0,286047009.1,N
1500093695.9,286047009.1,N
1500093715.8,286047006.6,N
1500093735.6,286047007.6,N
1500093755.4,286047006.8,N
1500093775.3,286047008.8,N
1500093795.1,286047009.2,N
1500093815.8,286047006.3,N
1500093835.7,286047004.7,N
1500093855.5,286047005.1,N
1500093875.3,286047005.5,N
1500093895.2,286047005.5,N
1500093915.9,286047005.5,N
1500093935.7,286047007.6,N
1500093955.6,286047004.7,N
1500093975.4,286047002.9,N
1500093995.2,286047006.9,N
1500094015.1,286047006.3,N
1500094016.0,286047006.3,N
1500094035.8,286047008.0,N
1500094055.6,286047011.9,N
1500094075.5,286047010.3,N
1500094095.3,286047010.5,N
1500094115.1,286047010.4,N
1500094135.8,286047008.4,N
1500094155.7,286047008.0,N
1500094175.5,286047009.9,N
1500094195.3,286047012.3,N
1500094215.2,286047009.6,N
1500094235.9,286047009.3,N
1500094255.7,286047009.9,N
1500094275.6,286047010.4,N
1500094295.4,286047012.3,N
1500094315.2,286047011.5,N
1500094335.1,286047011.4,N
1500094336.0,286047011.4,N
1500094355.8,286047013.7,N
1500094375.6,286047015.5,N
1500094395.5,286047014.0,N
1500094415.3,286047009.7,N
1500094435.1,286047013.6,N
1500094455.8,286047011.4,N
1500094475.7,286047015.3,N
1500094495.5,286047011.0,N
1500094515.3,286047013.5,N
1500094535.2,286047012.8,N
1500094555.0,286047014.0,N
1500094555.9,286047014.0,N
1500094575.7,286047011.5,N
1500094595.6,286047012.8,N
1500094615.4,286047013.6,N
1500094635.2,286047013.8,N
1500094655.1,286047013.2,N
1500094656.0,286047013.2,N
1500094675.8,286047013.9,N
1500094695.6,286047009.7,N
1500094715.5,286047011.7,N
1500094735.3,286047010.7,N
1500094755.1,286047011.6,N
1500094775.9,286047011.6,N
1500094795.7,286047013.8,N
